sat.trackr.live / text

‹ back to catalog

STARLINK-34117

NORAD 64040 · 2025-102U

PAYLOAD ACTIVE UNKNOWN

§ Identity

Operator
Country
US
Launch date
2025-05-16
Launch site
AFWTR
Launch vehicle
Mass (kg)
RCS (m²)

Purposes: comms

External: N2YO · Heavens-Above · Gunter

§ Orbital elements

Epoch: 2026-09-20T13:32:42.727488Z

Period
94.14 min
Inclination
70.0014°
Eccentricity
0.0002831
Mean motion
15.29565210 rev/d
Perigee alt
475.2 km
Apogee alt
479.1 km
Semi-major
6,855.2 km
B*
-3.0360e-4
RAAN
340.6643°
Arg perigee
275.1399°
Mean anomaly
84.9453°
Rev number
7,514

§ Raw data

STARLINK-341171 64040U 25102U   26263.56438342 -.00008840  00000+0 -30360-3 0  99942 64040  70.0014 340.6643 0002831 275.1399  84.9453 15.29565210 75140

JSON: /api/v1/satellites/64040 · /tle

For live sub-satellite position, see the globe view (requires WebGL).

§ Visibility from observer

Set your observer location to see the next 7 days of passes ≥ 10°. The values pass through the URL so the page stays shareable.

No JS? Fill the form by hand. The geolocation button needs JavaScript.